FW9925 Weather Reports


Display with metric or nautical units.
time (UTC)temp
F
wind
direction
speed
MPH
gust
MPH
rain 1hr
in
rain 24hr
in
rain mn
in
humidity
%
barometer
mb
20260503233513 53 0 1.0 9.0 0.00 0.00 0.00 69 1008.6
20260503233043 52 235 1.0 6.0 0.00 0.00 0.00 69 1008.0
20260503233030 53 0 3.0 9.0 0.00 0.00 0.00 69 1008.7
20260503232515 53 0 1.0 8.0 0.00 0.00 0.00 69 1008.7
20260503232015 53 248 3.0 11.0 0.00 0.00 0.00 69 1008.8
20260503231541 52 122 1.0 9.0 0.00 0.00 0.00 70 1008.0
20260503231532 53 248 3.0 11.0 0.00 0.00 0.00 70 1008.8
20260503231011 53 257 3.0 9.0 0.00 0.00 0.00 70 1008.8
20260503230514 53 226 2.0 9.0 0.00 0.00 0.00 70 1008.7
20260503230044 52 241 2.0 8.0 0.00 0.00 0.00 71 1008.1
20260503230032 53 319 4.0 10.0 0.00 0.00 0.00 70 1008.7
20260503225513 53 0 2.0 11.0 0.00 0.00 0.00 71 1008.8
20260503225013 53 223 3.0 11.0 0.00 0.00 0.00 71 1009.0
20260503224538 52 233 2.0 7.0 0.00 0.00 0.00 72 1008.2
20260503224529 53 244 4.0 12.0 0.00 0.00 0.00 71 1008.9
20260503224013 53 270 2.0 15.0 0.00 0.00 0.00 72 1008.9
20260503223513 53 247 3.0 15.0 0.00 0.00 0.00 72 1009.0
20260503223035 52 247 3.0 7.0 0.00 0.00 0.00 73 1008.3
20260503223032 53 238 6.0 15.0 0.00 0.00 0.00 72 1008.9
20260503222513 53 211 3.0 13.0 0.00 0.00 0.00 72 1009.0
20260503222013 53 276 2.0 11.0 0.00 0.00 0.00 72 1009.1
20260503221535 51 257 3.0 10.0 0.00 0.00 0.00 74 1008.4
20260503221533 53 273 2.0 12.0 0.00 0.00 0.00 72 1009.2
20260503221016 53 303 4.0 15.0 0.00 0.00 0.00 72 1009.3
20260503220516 53 244 4.0 15.0 0.00 0.00 0.00 72 1009.3
20260503220051 51 254 3.0 9.0 0.00 0.00 0.00 74 1008.5
20260503220029 53 267 6.0 15.0 0.00 0.00 0.00 71 1009.2
20260503215514 53 227 3.0 9.0 0.00 0.00 0.00 71 1009.3
20260503215013 53 257 3.0 13.0 0.00 0.00 0.00 71 1009.3
20260503214541 51 269 1.0 8.0 0.00 0.00 0.00 73 1008.7
20260503214013 53 298 5.0 14.0 0.00 0.00 0.00 72 1009.3
20260503213512 53 275 7.0 14.0 0.00 0.00 0.00 71 1009.2
20260503213040 52 234 4.0 8.0 0.00 0.00 0.00 71 1008.6
20260503213031 53 248 3.0 19.0 0.00 0.00 0.00 72 1009.1
20260503212514 53 205 6.0 19.0 0.00 0.00 0.00 71 1009.3
20260503212014 54 244 6.0 15.0 0.00 0.00 0.00 70 1009.0
20260503211540 53 188 5.0 9.0 0.00 0.00 0.00 68 1008.4
20260503211534 54 184 4.0 15.0 0.00 0.00 0.00 69 1009.0
20260503211013 55 294 6.0 21.0 0.00 0.00 0.00 66 1008.9
20260503210514 56 291 6.0 21.0 0.00 0.00 0.00 63 1008.7
20260503210038 55 354 4.0 11.0 0.00 0.00 0.00 62 1008.2
20260503210033 57 309 3.0 10.0 0.00 0.00 0.00 58 1008.6
20260503205513 57 200 3.0 18.0 0.00 0.00 0.00 57 1008.5
20260503205013 57 273 6.0 18.0 0.00 0.00 0.00 57 1008.4
20260503204534 57 319 9.0 18.0 0.00 0.00 0.00 55 1008.5
20260503204014 56 231 7.0 16.0 0.00 0.00 0.00 56 1008.4
20260503203513 56 256 8.0 16.0 0.00 0.00 0.00 56 1008.5
20260503203041 54 266 2.0 4.0 0.00 0.00 0.00 56 1007.6
20260503203036 55 234 2.0 6.0 0.00 0.00 0.00 58 1008.4
20260503202514 54 218 1.0 6.0 0.00 0.00 0.00 58 1008.4
20260503202015 54 216 1.0 4.0 0.00 0.00 0.00 59 1008.3
20260503201544 54 248 1.0 5.0 0.00 0.00 0.00 54 1007.6
20260503201532 53 184 1.0 4.0 0.00 0.00 0.00 60 1008.4
20260503201016 52 0 0.0 6.0 0.00 0.00 0.00 62 1008.3
20260503200513 51 169 3.0 6.0 0.00 0.00 0.00 62 1008.5
20260503200047 53 271 3.0 7.0 0.00 0.00 0.00 55 1008.0
20260503200037 51 217 1.0 5.0 0.00 0.00 0.00 62 1008.6
20260503195510 51 222 1.0 6.0 0.00 0.00 0.00 63 1008.7
20260503195013 50 169 2.0 8.0 0.00 0.00 0.00 63 1008.6
20260503194543 54 255 3.0 6.0 0.00 0.00 0.00 52 1008.0
20260503194532 50 210 3.0 9.0 0.00 0.00 0.00 63 1008.7
20260503194013 51 138 3.0 9.0 0.00 0.00 0.00 61 1008.8
20260503193513 52 173 5.0 9.0 0.00 0.00 0.00 59 1008.9
20260503193046 55 217 3.0 7.0 0.00 0.00 0.00 50 1008.0
20260503193036 52 224 4.0 8.0 0.00 0.00 0.00 58 1008.9
20260503192512 52 221 3.0 8.0 0.00 0.00 0.00 58 1009.1
20260503192011 53 0 1.0 10.0 0.00 0.00 0.00 57 1009.2
20260503191535 54 153 2.0 5.0 0.00 0.00 0.00 52 1008.4
20260503191531 53 0 3.0 10.0 0.00 0.00 0.00 57 1009.3
20260503191013 53 226 2.0 9.0 0.00 0.00 0.00 57 1009.5
20260503190516 53 187 3.0 9.0 0.00 0.00 0.00 56 1009.6
20260503190041 55 235 3.0 7.0 0.00 0.00 0.00 50 1008.8
20260503190032 54 137 3.0 8.0 0.00 0.00 0.00 54 1009.8
20260503185513 53 184 4.0 10.0 0.00 0.00 0.00 54 1009.8
20260503185015 53 159 4.0 10.0 0.00 0.00 0.00 54 1009.9
20260503184554 55 181 3.0 13.0 0.00 0.00 0.00 44 1009.1
20260503184540 54 137 5.0 10.0 0.00 0.00 0.00 50 1010.1
20260503184013 54 141 3.0 11.0 0.00 0.00 0.00 47 1010.2
20260503183510 53 192 6.0 12.0 0.00 0.00 0.00 46 1010.2
20260503183054 55 239 5.0 9.0 0.00 0.00 0.00 41 1009.2
20260503183035 54 151 4.0 12.0 0.00 0.00 0.00 45 1010.3
20260503182515 54 165 5.0 11.0 0.00 0.00 0.00 43 1010.5
20260503182015 54 175 4.0 11.0 0.00 0.00 0.00 42 1010.6
20260503181541 55 210 3.0 12.0 0.00 0.00 0.00 39 1009.4
20260503181530 54 198 4.0 10.0 0.00 0.00 0.00 42 1010.7
20260503181011 54 210 6.0 12.0 0.00 0.00 0.00 41 1010.9
20260503180514 53 189 5.0 12.0 0.00 0.00 0.00 42 1011.0
20260503180044 54 223 4.0 10.0 0.00 0.00 0.00 41 1011.1
20260503180040 55 182 6.0 16.0 0.00 0.00 0.00 38 1009.6
20260503175513 54 209 5.0 10.0 0.00 0.00 0.00 42 1011.1
20260503175012 54 207 4.0 12.0 0.00 0.00 0.00 41 1011.2
20260503174543 53 194 5.0 12.0 0.00 0.00 0.00 44 1011.2
20260503174013 53 199 5.0 13.0 0.00 0.00 0.00 44 1011.3
20260503173513 53 213 5.0 13.0 0.00 0.00 0.00 42 1011.4
20260503173047 55 259 4.0 11.0 0.00 0.00 0.00 38 1010.1
20260503173040 53 196 3.0 11.0 0.00 0.00 0.00 43 1011.5
20260503172513 53 239 5.0 11.0 0.00 0.00 0.00 42 1011.6
20260503172014 52 217 5.0 9.0 0.00 0.00 0.00 43 1011.7
20260503171540 54 212 5.0 11.0 0.00 0.00 0.00 37 1010.3
20260503171534 52 213 5.0 9.0 0.00 0.00 0.00 43 1011.8
20260503171013 52 224 4.0 10.0 0.00 0.00 0.00 43 1011.8
20260503170513 51 190 3.0 10.0 0.00 0.00 0.00 45 1012.1
20260503151013 44 211 5.0 11.0 0.00 0.00 0.00 66 1013.3
20260503150517 44 215 5.0 11.0 0.00 0.00 0.00 66 1013.4
20260503131013 44 221 2.0 8.0 0.00 0.00 0.00 65 1014.0
20260503130513 44 192 2.0 8.0 0.00 0.00 0.00 66 1013.9
20260503110511 37 0 0.0 2.0 0.00 0.00 0.00 69 1014.0
20260503090512 34 0 0.0 1.0 0.00 0.00 0.00 71 1014.4
20260503081554 30 0 0.0 0.0 0.00 0.00 0.00 76 1013.7
20260503081538 34 0 0.0 1.0 0.00 0.00 0.00 70 1014.6
20260503081010 34 0 0.0 1.0 0.00 0.00 0.00 70 1014.6
20260503080509 34 0 0.0 1.0 0.00 0.00 0.00 70 1014.7
20260503072512 35 0 0.0 1.0 0.00 0.00 0.00 66 1014.6
20260503072013 35 0 0.0 1.0 0.00 0.00 0.00 65 1014.7
20260503071540 30 0 0.0 0.0 0.00 0.00 0.00 74 1013.8
20260503071528 35 0 0.0 1.0 0.00 0.00 0.00 64 1014.7
20260503071011 35 0 0.0 1.0 0.00 0.00 0.00 64 1014.6
20260503070511 35 0 0.0 2.0 0.00 0.00 0.00 64 1014.6
20260503055011 37 0 0.0 1.0 0.00 0.00 0.00 59 1015.2
20260503054549 32 0 0.0 0.0 0.00 0.00 0.00 71 1014.1
20260503054531 37 0 0.0 1.0 0.00 0.00 0.00 59 1015.1
20260503054010 38 0 0.0 1.0 0.00 0.00 0.00 58 1015.2
20260503053510 38 0 0.0 1.0 0.00 0.00 0.00 58 1015.2
20260503053042 33 0 0.0 0.0 0.00 0.00 0.00 71 1014.3
20260503053028 38 0 0.0 2.0 0.00 0.00 0.00 57 1015.3
20260503052512 38 0 0.0 2.0 0.00 0.00 0.00 57 1015.3
20260503052009 39 0 0.0 1.0 0.00 0.00 0.00 56 1015.3
20260503051536 33 0 0.0 0.0 0.00 0.00 0.00 71 1014.4
20260503051534 39 0 0.0 1.0 0.00 0.00 0.00 55 1015.3
20260503051012 39 0 0.0 2.0 0.00 0.00 0.00 55 1015.3
20260503050509 39 0 0.0 2.0 0.00 0.00 0.00 55 1015.4
20260503050038 33 0 0.0 0.0 0.00 0.00 0.00 71 1014.3
20260503050026 39 0 0.0 2.0 0.00 0.00 0.00 55 1015.4
20260503045514 39 0 0.0 2.0 0.00 0.00 0.00 56 1015.3
20260503045009 39 315 0.0 2.0 0.00 0.00 0.00 56 1015.4
20260503044543 34 0 0.0 0.0 0.00 0.00 0.00 71 1014.4
20260503044532 39 0 0.0 2.0 0.00 0.00 0.00 56 1015.4
20260503044009 40 306 0.0 2.0 0.00 0.00 0.00 55 1015.4
20260503043510 40 300 0.0 2.0 0.00 0.00 0.00 55 1015.5
20260503043043 34 0 0.0 0.0 0.00 0.00 0.00 71 1014.4
20260503043029 40 315 0.0 4.0 0.00 0.00 0.00 55 1015.4
20260503042510 40 0 0.0 4.0 0.00 0.00 0.00 55 1015.5
20260503042012 40 340 1.0 4.0 0.00 0.00 0.00 55 1015.5
20260503041546 35 0 0.0 0.0 0.00 0.00 0.00 70 1014.5
20260503041527 40 0 0.0 3.0 0.00 0.00 0.00 55 1015.5
20260503041014 41 314 0.0 3.0 0.00 0.00 0.00 54 1015.5
20260503040511 41 330 0.0 3.0 0.00 0.00 0.00 54 1015.6
20260503040046 36 0 0.0 0.0 0.00 0.00 0.00 68 1014.6
20260503040028 41 350 1.0 4.0 0.00 0.00 0.00 53 1015.6
20260503035512 41 333 1.0 4.0 0.00 0.00 0.00 52 1015.5
20260503035012 41 304 0.0 3.0 0.00 0.00 0.00 53 1015.6
20260503034541 36 0 0.0 0.0 0.00 0.00 0.00 66 1014.5
20260503034529 41 332 1.0 3.0 0.00 0.00 0.00 54 1015.6
20260503034011 42 315 0.0 2.0 0.00 0.00 0.00 54 1015.6
20260503033516 42 0 0.0 3.0 0.00 0.00 0.00 54 1015.7
20260503033040 37 0 0.0 0.0 0.00 0.00 0.00 64 1014.5
20260503033036 42 318 0.0 3.0 0.00 0.00 0.00 53 1015.6
20260503032512 43 0 1.0 8.0 0.00 0.00 0.00 51 1015.6
20260503032010 43 0 1.0 8.0 0.00 0.00 0.00 51 1015.6
20260503031552 38 0 0.0 0.0 0.00 0.00 0.00 63 1014.5
20260503031532 43 227 1.0 8.0 0.00 0.00 0.00 50 1015.6
20260503031012 43 0 2.0 7.0 0.00 0.00 0.00 51 1015.5
20260503030512 43 231 1.0 7.0 0.00 0.00 0.00 52 1015.6
20260503030048 43 286 1.0 9.0 0.00 0.00 0.00 51 1015.6
20260503030040 38 0 0.0 0.0 0.00 0.00 0.00 61 1014.5
20260503025512 43 290 1.0 9.0 0.00 0.00 0.00 51 1015.6
20260503025012 43 285 3.0 8.0 0.00 0.00 0.00 52 1015.6
20260503024552 38 0 0.0 0.0 0.00 0.00 0.00 61 1014.5
20260503024533 43 248 2.0 5.0 0.00 0.00 0.00 53 1015.7
20260503024010 43 0 0.0 2.0 0.00 0.00 0.00 53 1015.7
20260503023511 43 0 0.0 4.0 0.00 0.00 0.00 53 1015.7
20260503023039 38 0 0.0 0.0 0.00 0.00 0.00 63 1014.7
20260503023026 44 0 0.0 4.0 0.00 0.00 0.00 52 1015.7
20260503022511 44 265 2.0 4.0 0.00 0.00 0.00 51 1015.8
20260503022012 44 238 1.0 5.0 0.00 0.00 0.00 51 1015.7
20260503021535 38 0 0.0 0.0 0.00 0.00 0.00 64 1014.7
20260503021527 44 254 2.0 5.0 0.00 0.00 0.00 51 1015.8
20260503021012 44 253 1.0 7.0 0.00 0.00 0.00 51 1015.8
20260503020512 44 0 0.0 7.0 0.00 0.00 0.00 51 1015.8
20260503020034 38 0 0.0 0.0 0.00 0.00 0.00 63 1014.7
20260503020028 44 270 1.0 7.0 0.00 0.00 0.00 51 1015.8
20260503015510 44 248 2.0 6.0 0.00 0.00 0.00 51 1015.8
20260503015013 44 242 1.0 6.0 0.00 0.00 0.00 51 1015.7
20260503014543 38 0 0.0 0.0 0.00 0.00 0.00 63 1014.6
20260503014529 43 250 2.0 4.0 0.00 0.00 0.00 52 1015.7
20260503014012 43 0 1.0 3.0 0.00 0.00 0.00 52 1015.7
20260503013512 43 0 0.0 3.0 0.00 0.00 0.00 52 1015.8
20260503013043 39 0 0.0 0.0 0.00 0.00 0.00 61 1014.6
20260503013029 43 0 0.0 2.0 0.00 0.00 0.00 53 1015.7
20260503012510 43 0 0.0 2.0 0.00 0.00 0.00 52 1015.8
20260503012009 43 0 0.0 2.0 0.00 0.00 0.00 52 1015.8
20260503011544 40 0 0.0 0.0 0.00 0.00 0.00 59 1014.6
20260503011526 44 277 0.0 2.0 0.00 0.00 0.00 51 1015.8
20260503011013 44 0 0.0 1.0 0.00 0.00 0.00 51 1015.7
20260503010517 44 0 0.0 6.0 0.00 0.00 0.00 50 1015.8
20260503010041 41 0 0.0 0.0 0.00 0.00 0.00 55 1014.6
20260503010028 44 0 0.0 8.0 0.00 0.00 0.00 50 1015.7
20260503005512 44 311 3.0 8.0 0.00 0.00 0.00 49 1015.7
20260503005011 44 278 1.0 6.0 0.00 0.00 0.00 50 1015.7
20260503004601 43 0 0.0 0.0 0.00 0.00 0.00 52 1014.5
20260503004555 44 297 2.0 6.0 0.00 0.00 0.00 50 1015.5
20260503004008 44 293 2.0 5.0 0.00 0.00 0.00 49 1015.5
20260503003512 45 305 0.0 5.0 0.00 0.00 0.00 50 1015.5
20260503003034 43 0 0.0 2.0 0.00 0.00 0.00 50 1014.3
20260503003030 45 324 1.0 9.0 0.00 0.00 0.00 50 1015.5
20260503002510 45 345 3.0 9.0 0.00 0.00 0.00 49 1015.5
20260503001550 44 0 0.0 2.0 0.00 0.00 0.00 51 1014.4
20260503001541 45 32 2.0 7.0 0.00 0.00 0.00 52 1015.5
20260503001012 45 0 1.0 5.0 0.00 0.00 0.00 52 1015.5
20260503000514 45 0 0.0 8.0 0.00 0.00 0.00 51 1015.5
20260503000055 44 0 0.0 3.0 0.00 0.00 0.00 53 1014.3
20260503000032 45 293 3.0 10.0 0.00 0.00 0.00 51 1015.6
20260502235509 45 303 3.0 10.0 0.00 0.00 0.00 51 1015.5
20260502235011 45 305 2.0 8.0 0.00 0.00 0.00 51 1015.5
20260502234542 44 0 0.0 4.0 0.00 0.00 0.00 53 1014.3
20260502234526 45 329 2.0 7.0 0.00 0.00 0.00 51 1015.4
20260502234014 45 23 1.0 7.0 0.00 0.00 0.00 51 1015.5